DW9750 Weather Reports


time (UTC)temp
C
wind
direction
speed
KPH
gust
KPH
rain 1hr
cm
rain 24hr
cm
rain mn
cm
humidity
%
barometer
mb
20260507184605 17 78 1.6 8.0 0.00 0.00 0.00 75 1016.5
20260507183054 17 43 1.6 11.3 0.00 0.00 0.00 78 1016.9
20260507181600 16 14 3.2 14.5 0.00 0.00 0.00 81 1016.7
20260507180050 16 85 6.4 12.9 0.00 0.00 0.00 81 1016.8
20260507174555 16 108 1.6 9.7 0.00 0.00 0.00 82 1016.9
20260507173049 16 25 0.0 9.7 0.00 0.00 0.00 83 1016.3
20260507171550 15 326 1.6 11.3 0.00 0.00 0.00 80 1016.9
20260507170051 15 18 1.6 8.0 0.00 0.00 0.00 81 1016.8
20260507164547 15 80 1.6 12.9 0.00 0.18 0.00 82 1017.3
20260507163046 15 303 0.0 9.7 0.00 0.18 0.00 81 1017.4
20260507161545 15 303 3.2 11.3 0.00 0.18 0.00 82 1016.8
20260507160044 14 104 1.6 9.7 0.00 0.18 0.00 83 1016.3
20260507154547 14 316 3.2 11.3 0.00 0.23 0.00 84 1016.7
20260507153049 14 206 1.6 9.7 0.00 0.23 0.00 85 1017.1
20260507151540 14 1 3.2 11.3 0.00 0.23 0.00 86 1017.2
20260507150043 14 87 4.8 12.9 0.00 0.23 0.00 85 1016.8
20260507144538 14 21 1.6 14.5 0.00 0.23 0.00 86 1017.0
20260507143037 13 261 3.2 12.9 0.00 0.23 0.00 87 1017.3
20260507141537 13 56 1.6 9.7 0.00 0.23 0.00 88 1017.3
20260507140034 13 334 0.0 9.7 0.00 0.23 0.00 88 1017.2
20260507134541 13 359 3.2 16.1 0.00 0.23 0.00 89 1016.3
20260507133036 13 327 1.6 8.0 0.00 0.23 0.00 90 1017.0
20260507131550 13 49 1.6 9.7 0.00 0.23 0.00 90 1017.3
20260507130029 13 184 1.6 17.7 0.00 0.23 0.00 90 1016.5
20260507124528 13 357 0.0 12.9 0.00 0.23 0.00 90 1016.4
20260507123026 13 360 0.0 12.9 0.00 0.23 0.00 90 1015.8
20260507121525 13 125 0.0 6.4 0.00 0.23 0.00 89 1016.1
20260507120035 14 32 1.6 8.0 0.00 0.23 0.00 88 1015.7
20260507114521 14 239 0.0 8.0 0.00 0.23 0.00 88 1015.3
20260507113018 14 344 0.0 11.3 0.00 0.23 0.00 87 1015.2
20260507111515 14 18 1.6 8.0 0.00 0.23 0.00 86 1014.7
20260507110014 15 298 0.0 6.4 0.00 0.23 0.00 86 1014.9
20260507104513 15 38 1.6 8.0 0.00 0.23 0.00 86 1014.5
20260507103011 15 6 1.6 9.7 0.00 0.23 0.00 86 1014.5
20260507101509 15 7 0.0 8.0 0.00 0.23 0.00 86 1014.6
20260507100009 15 8 0.0 4.8 0.00 0.23 0.00 86 1014.4
20260507094507 15 286 0.0 3.2 0.00 0.23 0.00 86 1014.4
20260507093006 15 284 0.0 4.8 0.00 0.23 0.00 86 1014.0
20260507091505 15 314 0.0 4.8 0.00 0.23 0.00 86 1014.2
20260507090008 15 66 0.0 3.2 0.00 0.23 0.00 86 1014.4
20260507084509 15 282 0.0 3.2 0.00 0.23 0.00 87 1014.0
20260507083005 15 66 0.0 1.6 0.00 0.23 0.00 88 1014.2
20260507081502 15 35 0.0 1.6 0.00 0.23 0.00 88 1014.3
20260507080006 15 35 0.0 1.6 0.00 0.23 0.00 89 1014.3
20260507074501 15 35 0.0 0.0 0.00 0.23 0.00 89 1014.0
20260507073100 15 35 0.0 0.0 0.00 0.23 0.00 89 1014.1
20260507071600 15 35 0.0 1.6 0.00 0.23 0.00 88 1014.0
20260507070058 15 92 0.0 0.0 0.00 0.23 0.00 88 1013.6
20260507064555 15 83 0.0 4.8 0.00 0.23 0.00 87 1013.8
20260507063054 15 92 0.0 3.2 0.00 0.23 0.00 87 1013.7
20260507061553 15 97 0.0 3.2 0.00 0.23 0.00 87 1013.5
20260507060055 15 109 0.0 0.0 0.00 0.23 0.00 87 1013.6
20260507054626 16 82 0.0 0.0 0.00 0.23 0.00 87 1013.4
20260507053052 16 82 0.0 0.0 0.00 0.23 0.00 87 1013.2
20260507051547 16 264 0.0 3.2 0.00 0.23 0.00 87 1013.0
20260507050046 16 9 0.0 1.6 0.00 0.23 0.00 87 1013.2
20260507044549 16 285 0.0 1.6 0.00 0.23 0.23 86 1013.2
20260507043045 16 119 0.0 3.2 0.00 0.23 0.23 86 1013.1
20260507041545 16 59 0.0 3.2 0.00 0.23 0.23 87 1013.1
20260507040044 16 296 1.6 6.4 0.00 0.23 0.23 87 1012.9
20260507034551 16 303 0.0 6.4 0.00 0.23 0.23 88 1013.2
20260507033039 16 79 0.0 4.8 0.00 0.23 0.23 88 1012.6
20260507031541 16 297 0.0 6.4 0.00 0.23 0.23 88 1012.5
20260507030047 16 118 1.6 4.8 0.00 0.23 0.23 88 1012.7
20260507024541 16 317 0.0 6.4 0.00 0.23 0.23 88 1012.3
20260507023034 16 87 0.0 8.0 0.00 0.23 0.23 87 1012.5
20260507021531 16 57 0.0 6.4 0.00 0.23 0.23 86 1012.0
20260507020030 16 89 0.0 4.8 0.00 0.23 0.23 86 1011.9
20260507014543 16 265 1.6 6.4 0.00 0.23 0.23 87 1012.0
20260507013028 16 83 0.0 3.2 0.00 0.23 0.23 86 1011.4
20260507011528 16 324 0.0 1.6 0.00 0.23 0.23 86 1011.1
20260507010023 16 34 0.0 6.4 0.00 0.23 0.23 85 1010.9
20260507004523 16 285 1.6 8.0 0.00 0.23 0.23 85 1010.7
20260507003019 16 301 0.0 9.7 0.00 0.23 0.23 85 1010.7
20260507001524 17 336 0.0 6.4 0.00 0.23 0.23 85 1010.4
20260507000022 17 334 1.6 8.0 0.00 0.23 0.23 84 1010.3
20260506234515 17 7 1.6 9.7 0.00 0.23 0.23 84 1009.9
20260506233011 17 324 3.2 11.3 0.00 0.23 0.23 83 1010.0
20260506231507 18 7 3.2 14.5 0.00 0.23 0.23 81 1010.0
20260506230004 18 302 1.6 8.0 0.00 0.23 0.23 81 1009.7
20260506224503 18 291 3.2 11.3 0.00 0.23 0.23 79 1009.4
20260506223001 19 319 1.6 16.1 0.00 0.23 0.23 79 1009.4
20260506221600 19 35 6.4 22.5 0.00 0.23 0.23 78 1009.4
20260506220100 19 347 4.8 19.3 0.00 0.23 0.23 78 1009.1
20260506214557 20 336 3.2 12.9 0.00 0.23 0.23 77 1009.1
20260506213113 20 353 1.6 11.3 0.00 0.23 0.23 78 1009.0
20260506211556 21 335 4.8 22.5 0.00 0.23 0.23 76 1009.3
20260506210057 23 347 6.4 19.3 0.00 0.23 0.23 69 1008.9
20260506204554 25 297 4.8 14.5 0.00 0.23 0.23 70 1008.7
20260506203053 25 308 9.7 20.9 0.00 0.23 0.23 68 1008.7
20260506201552 25 266 3.2 19.3 0.00 0.23 0.23 74 1008.7
20260506200051 26 258 3.2 12.9 0.00 0.23 0.23 73 1008.6
20260506194555 25 322 3.2 17.7 0.00 0.23 0.23 76 1008.7
20260506193057 25 287 4.8 17.7 0.00 0.23 0.23 76 1008.7
20260506191548 25 343 6.4 14.5 0.00 0.23 0.23 77 1008.7
20260506190050 26 267 3.2 8.0 0.00 0.23 0.23 75 1008.6